Time,TemperatureF,DewpointF,PressureIn,WindDirection,WindDirectionDegrees,WindSpeedMPH,WindSpeedGustMPH,Humidity,HourlyPrecipIn,Conditions,Clouds,dailyrainin,SoftwareType,DateUTC
2014-09-23 00:02:00,77.9,75.7,29.91,SE,135,1.0,1.0,93,0.00,,,0.00,meteohub,2014-09-23 04:02:00,
2014-09-23 00:07:00,77.9,75.7,29.92,SE,135,1.0,1.0,93,0.00,,,0.00,meteohub,2014-09-23 04:07:00,
2014-09-23 00:12:00,77.7,75.6,29.92,SE,135,1.0,1.0,93,0.00,,,0.00,meteohub,2014-09-23 04:12:00,
2014-09-23 00:17:00,77.5,75.4,29.92,SE,135,0.0,1.0,93,0.00,,,0.00,meteohub,2014-09-23 04:17:00,
2014-09-23 00:22:00,77.4,75.2,29.92,SE,135,1.0,1.0,93,0.00,,,0.00,meteohub,2014-09-23 04:22:00,
2014-09-23 00:27:00,77.2,75.4,29.91,SE,135,0.0,1.0,94,0.00,,,0.00,meteohub,2014-09-23 04:27:00,
2014-09-23 00:32:00,77.0,75.2,29.92,SE,135,0.0,1.0,94,0.00,,,0.00,meteohub,2014-09-23 04:32:00,
2014-09-23 00:37:00,76.6,75.0,29.91,SE,135,0.0,1.0,95,0.00,,,0.00,meteohub,2014-09-23 04:37:00,
2014-09-23 00:42:00,76.5,75.2,29.92,SE,135,1.0,1.0,96,0.00,,,0.00,meteohub,2014-09-23 04:42:00,
2014-09-23 00:47:00,76.1,74.8,29.91,SE,135,0.0,1.0,96,0.00,,,0.00,meteohub,2014-09-23 04:47:00,
2014-09-23 00:52:00,75.9,74.7,29.91,SE,135,0.0,1.0,96,0.00,,,0.00,meteohub,2014-09-23 04:52:00,
2014-09-23 00:57:00,75.7,74.5,29.91,SE,135,0.0,1.0,96,0.00,,,0.00,meteohub,2014-09-23 04:57:00,
2014-09-23 01:02:00,75.4,74.5,29.91,SE,135,0.0,1.0,97,0.00,,,0.00,meteohub,2014-09-23 05:02:00,
2014-09-23 01:07:00,75.4,74.5,29.91,SE,135,0.0,1.0,97,0.00,,,0.00,meteohub,2014-09-23 05:07:00,
2014-09-23 01:12:00,75.0,74.7,29.91,SE,135,0.0,1.0,99,0.00,,,0.00,meteohub,2014-09-23 05:12:00,
2014-09-23 01:17:00,74.8,74.5,29.91,SE,135,0.0,1.0,99,0.00,,,0.00,meteohub,2014-09-23 05:17:00,
2014-09-23 01:22:00,74.8,74.5,29.91,SE,135,0.0,1.0,99,0.00,,,0.00,meteohub,2014-09-23 05:22:00,
2014-09-23 01:26:00,74.7,74.3,29.91,SE,135,0.0,1.0,99,0.00,,,0.00,meteohub,2014-09-23 05:26:00,
2014-09-23 01:32:00,74.7,74.3,29.91,SE,135,0.0,1.0,99,0.00,,,0.00,meteohub,2014-09-23 05:32:00,
2014-09-23 01:37:00,74.5,74.1,29.91,SE,135,1.0,1.0,99,0.00,,,0.00,meteohub,2014-09-23 05:37:00,
2014-09-23 01:42:00,74.3,73.9,29.91,SE,135,0.0,1.0,99,0.00,,,0.00,meteohub,2014-09-23 05:42:00,
2014-09-23 01:47:00,74.3,73.9,29.91,SE,135,0.0,1.0,99,0.00,,,0.00,meteohub,2014-09-23 05:47:00,
2014-09-23 01:52:00,74.1,73.8,29.91,SE,135,0.0,1.0,99,0.00,,,0.00,meteohub,2014-09-23 05:52:00,
2014-09-23 01:53:00,74.1,73.8,29.91,SE,135,0.0,1.0,99,0.00,,,0.00,meteohub,2014-09-23 05:53:00,
2014-09-23 01:58:00,74.1,73.8,29.91,SE,135,0.0,1.0,99,0.00,,,0.00,meteohub,2014-09-23 05:58:00,
2014-09-23 02:04:00,74.1,73.8,29.91,SE,135,0.0,1.0,99,0.00,,,0.00,meteohub,2014-09-23 06:04:00,
2014-09-23 02:09:00,73.9,73.6,29.91,SE,135,1.0,1.0,99,0.00,,,0.00,meteohub,2014-09-23 06:09:00,
2014-09-23 02:14:00,73.9,73.6,29.91,SE,135,1.0,1.0,99,0.00,,,0.00,meteohub,2014-09-23 06:14:00,
2014-09-23 02:19:00,73.9,73.6,29.91,SE,135,0.0,1.0,99,0.00,,,0.00,meteohub,2014-09-23 06:19:00,
2014-09-23 02:24:00,73.9,73.6,29.91,SE,135,0.0,1.0,99,0.00,,,0.00,meteohub,2014-09-23 06:24:00,
2014-09-23 02:29:00,73.6,73.2,29.91,SE,135,0.0,1.0,99,0.00,,,0.00,meteohub,2014-09-23 06:29:00,
2014-09-23 02:34:00,73.6,73.2,29.91,SE,135,1.0,1.0,99,0.00,,,0.00,meteohub,2014-09-23 06:34:00,
2014-09-23 02:39:00,73.6,73.2,29.91,SE,135,1.0,1.0,99,0.00,,,0.00,meteohub,2014-09-23 06:39:00,
2014-09-23 02:44:00,73.6,73.2,29.91,SE,135,1.0,1.0,99,0.00,,,0.00,meteohub,2014-09-23 06:44:00,
2014-09-23 02:49:00,73.6,73.2,29.91,SE,135,1.0,1.0,99,0.00,,,0.00,meteohub,2014-09-23 06:49:00,
2014-09-23 02:54:00,73.6,73.2,29.91,SE,135,1.0,1.0,99,0.00,,,0.00,meteohub,2014-09-23 06:54:00,
2014-09-23 02:59:00,73.6,73.2,29.91,SE,135,0.0,1.0,99,0.00,,,0.00,meteohub,2014-09-23 06:59:00,
2014-09-23 03:04:00,73.4,73.0,29.91,SE,135,1.0,1.0,99,0.00,,,0.00,meteohub,2014-09-23 07:04:00,
2014-09-23 03:09:00,73.4,73.0,29.91,SE,135,1.0,1.0,99,0.00,,,0.00,meteohub,2014-09-23 07:09:00,
2014-09-23 03:14:00,73.4,73.0,29.91,SE,135,1.0,1.0,99,0.00,,,0.00,meteohub,2014-09-23 07:14:00,
2014-09-23 03:19:00,73.4,73.0,29.92,SE,135,1.0,1.0,99,0.00,,,0.00,meteohub,2014-09-23 07:19:00,
2014-09-23 03:24:00,73.2,72.3,29.91,SE,135,0.0,1.0,97,0.00,,,0.00,meteohub,2014-09-23 07:24:00,
2014-09-23 03:29:00,73.2,72.3,29.91,SE,135,1.0,1.0,97,0.00,,,0.00,meteohub,2014-09-23 07:29:00,
2014-09-23 03:34:00,73.2,72.3,29.92,SE,135,1.0,1.0,97,0.00,,,0.00,meteohub,2014-09-23 07:34:00,
2014-09-23 03:39:00,73.2,72.3,29.91,SE,135,1.0,1.0,97,0.00,,,0.00,meteohub,2014-09-23 07:39:00,
2014-09-23 03:44:00,73.2,72.3,29.92,SE,135,1.0,1.0,97,0.00,,,0.00,meteohub,2014-09-23 07:44:00,
2014-09-23 03:49:00,73.2,72.3,29.92,SE,135,1.0,1.0,97,0.00,,,0.00,meteohub,2014-09-23 07:49:00,
2014-09-23 03:54:00,73.0,72.1,29.91,SE,135,1.0,1.0,97,0.00,,,0.00,meteohub,2014-09-23 07:54:00,
2014-09-23 03:59:00,73.0,72.1,29.91,SE,135,1.0,1.0,97,0.00,,,0.00,meteohub,2014-09-23 07:59:00,
2014-09-23 04:04:00,73.0,72.1,29.91,SE,135,1.0,1.0,97,0.00,,,0.00,meteohub,2014-09-23 08:04:00,
2014-09-23 04:09:00,72.9,72.0,29.92,SE,135,1.0,1.0,97,0.00,,,0.00,meteohub,2014-09-23 08:09:00,
2014-09-23 04:14:00,72.7,71.8,29.91,SE,135,1.0,1.0,97,0.00,,,0.00,meteohub,2014-09-23 08:14:00,
2014-09-23 04:19:00,72.7,71.8,29.91,SE,135,1.0,1.0,97,0.00,,,0.00,meteohub,2014-09-23 08:19:00,
2014-09-23 04:24:00,72.5,71.6,29.91,SE,135,0.0,1.0,97,0.00,,,0.00,meteohub,2014-09-23 08:24:00,
2014-09-23 04:30:00,72.3,71.4,29.91,SE,135,1.0,1.0,97,0.00,,,0.00,meteohub,2014-09-23 08:30:00,
2014-09-23 04:35:00,72.3,71.4,29.91,SE,135,1.0,1.0,97,0.00,,,0.00,meteohub,2014-09-23 08:35:00,
2014-09-23 04:40:00,72.1,71.2,29.91,SE,135,1.0,1.0,97,0.00,,,0.00,meteohub,2014-09-23 08:40:00,
2014-09-23 04:45:00,72.1,71.2,29.90,SE,135,1.0,1.0,97,0.00,,,0.00,meteohub,2014-09-23 08:45:00,
2014-09-23 04:50:00,72.0,71.1,29.90,SE,135,1.0,1.0,97,0.00,,,0.00,meteohub,2014-09-23 08:50:00,
2014-09-23 04:55:00,71.8,70.9,29.90,SE,135,1.0,2.0,97,0.00,,,0.00,meteohub,2014-09-23 08:55:00,
2014-09-23 05:00:00,71.8,70.9,29.90,SE,135,0.0,2.0,97,0.00,,,0.00,meteohub,2014-09-23 09:00:00,
2014-09-23 05:05:00,71.6,70.7,29.90,SE,135,1.0,2.0,97,0.00,,,0.00,meteohub,2014-09-23 09:05:00,
2014-09-23 05:10:00,71.6,70.7,29.90,SE,135,0.0,1.0,97,0.00,,,0.00,meteohub,2014-09-23 09:10:00,
2014-09-23 05:15:00,71.4,70.9,29.90,SE,135,1.0,1.0,98,0.00,,,0.00,meteohub,2014-09-23 09:15:00,
2014-09-23 05:20:00,71.2,70.7,29.90,SE,135,1.0,1.0,98,0.00,,,0.00,meteohub,2014-09-23 09:20:00,
2014-09-23 05:25:00,71.2,70.7,29.90,SE,135,1.0,1.0,98,0.00,,,0.00,meteohub,2014-09-23 09:25:00,
2014-09-23 05:30:00,71.1,70.5,29.90,SE,135,1.0,1.0,98,0.00,,,0.00,meteohub,2014-09-23 09:30:00,
2014-09-23 05:35:00,71.1,70.5,29.90,SE,135,1.0,1.0,98,0.00,,,0.00,meteohub,2014-09-23 09:35:00,
2014-09-23 05:40:00,70.9,70.3,29.91,SE,135,2.0,2.0,98,0.00,,,0.00,meteohub,2014-09-23 09:40:00,
2014-09-23 05:45:00,70.9,70.3,29.91,SE,135,0.0,2.0,98,0.00,,,0.00,meteohub,2014-09-23 09:45:00,
2014-09-23 05:50:00,70.7,70.2,29.91,SE,135,1.0,2.0,98,0.00,,,0.00,meteohub,2014-09-23 09:50:00,
2014-09-23 05:55:00,70.9,70.0,29.91,SE,135,1.0,2.0,97,0.00,,,0.00,meteohub,2014-09-23 09:55:00,
2014-09-23 06:00:00,70.7,69.8,29.91,SE,135,1.0,1.0,97,0.00,,,0.00,meteohub,2014-09-23 10:00:00,
2014-09-23 06:05:00,70.7,69.8,29.91,SE,135,1.0,1.0,97,0.00,,,0.00,meteohub,2014-09-23 10:05:00,
2014-09-23 06:10:00,70.3,69.1,29.91,SE,135,1.0,1.0,96,0.00,,,0.00,meteohub,2014-09-23 10:10:00,
2014-09-23 06:15:00,70.2,68.9,29.91,SE,135,1.0,1.0,96,0.00,,,0.00,meteohub,2014-09-23 10:15:00,
2014-09-23 06:20:00,70.0,68.7,29.91,SE,135,0.0,1.0,96,0.00,,,0.00,meteohub,2014-09-23 10:20:00,
2014-09-23 06:25:00,69.8,68.9,29.92,SE,135,1.0,1.0,97,0.00,,,0.00,meteohub,2014-09-23 10:25:00,
2014-09-23 06:30:00,69.6,69.1,29.92,SE,135,1.0,1.0,98,0.00,,,0.00,meteohub,2014-09-23 10:30:00,
2014-09-23 06:35:00,69.4,68.9,29.92,SE,135,1.0,1.0,98,0.00,,,0.00,meteohub,2014-09-23 10:35:00,
2014-09-23 06:40:00,69.3,68.7,29.92,SE,135,0.0,1.0,98,0.00,,,0.00,meteohub,2014-09-23 10:40:00,
2014-09-23 06:45:00,69.1,68.7,29.92,SE,135,0.0,1.0,99,0.00,,,0.00,meteohub,2014-09-23 10:45:00,
2014-09-23 06:50:00,69.1,68.7,29.92,SE,135,1.0,1.0,99,0.00,,,0.00,meteohub,2014-09-23 10:50:00,
2014-09-23 06:55:00,68.9,68.5,29.92,SE,135,1.0,1.0,99,0.00,,,0.00,meteohub,2014-09-23 10:55:00,
2014-09-23 07:00:00,68.7,68.4,29.93,SE,135,1.0,1.0,99,0.00,,,0.00,meteohub,2014-09-23 11:00:00,
2014-09-23 07:05:00,68.5,68.2,29.93,SE,135,1.0,1.0,99,0.00,,,0.00,meteohub,2014-09-23 11:05:00,
2014-09-23 07:10:00,68.5,68.2,29.93,SE,135,0.0,1.0,99,0.00,,,0.00,meteohub,2014-09-23 11:10:00,
2014-09-23 07:15:00,68.4,68.0,29.93,SE,135,1.0,1.0,99,0.00,,,0.00,meteohub,2014-09-23 11:15:00,
2014-09-23 07:20:00,68.2,67.8,29.93,SE,135,1.0,1.0,99,0.00,,,0.00,meteohub,2014-09-23 11:20:00,
2014-09-23 07:25:00,68.2,67.8,29.93,SE,135,1.0,1.0,99,0.00,,,0.00,meteohub,2014-09-23 11:25:00,
2014-09-23 07:30:00,68.0,67.6,29.93,SE,135,1.0,1.0,99,0.00,,,0.00,meteohub,2014-09-23 11:30:00,
2014-09-23 07:35:00,68.0,67.6,29.93,SE,135,1.0,1.0,99,0.00,,,0.00,meteohub,2014-09-23 11:35:00,
2014-09-23 07:40:00,67.8,67.5,29.93,SE,135,0.0,1.0,99,0.00,,,0.00,meteohub,2014-09-23 11:40:00,
2014-09-23 07:45:00,67.6,67.3,29.93,SE,135,1.0,1.0,99,0.00,,,0.00,meteohub,2014-09-23 11:45:00,
2014-09-23 07:50:00,67.6,67.3,29.93,SE,135,1.0,1.0,99,0.00,,,0.00,meteohub,2014-09-23 11:50:00,
2014-09-23 07:55:00,67.5,67.1,29.93,SE,135,1.0,1.0,99,0.00,,,0.00,meteohub,2014-09-23 11:55:00,
2014-09-23 08:00:00,67.3,66.9,29.93,SE,135,1.0,1.0,99,0.00,,,0.00,meteohub,2014-09-23 12:00:00,
2014-09-23 08:05:00,67.3,66.9,29.93,SE,135,1.0,1.0,99,0.00,,,0.00,meteohub,2014-09-23 12:05:00,
2014-09-23 08:10:00,67.1,66.7,29.93,SE,135,1.0,1.0,99,0.00,,,0.00,meteohub,2014-09-23 12:10:00,
2014-09-23 08:13:00,67.1,66.7,29.93,SE,135,1.0,1.0,99,0.00,,,0.00,meteohub,2014-09-23 12:13:00,
2014-09-23 08:18:00,66.9,66.6,29.93,SE,135,1.0,1.0,99,0.00,,,0.00,meteohub,2014-09-23 12:18:00,
2014-09-23 08:23:00,66.9,66.6,29.94,SE,135,1.0,1.0,99,0.00,,,0.00,meteohub,2014-09-23 12:23:00,
2014-09-23 08:28:00,66.7,66.4,29.94,SE,135,1.0,1.0,99,0.00,,,0.00,meteohub,2014-09-23 12:28:00,
2014-09-23 08:33:00,66.9,66.6,29.94,SE,135,1.0,1.0,99,0.00,,,0.00,meteohub,2014-09-23 12:33:00,
2014-09-23 08:38:00,66.9,66.6,29.94,SE,135,1.0,1.0,99,0.00,,,0.00,meteohub,2014-09-23 12:38:00,
2014-09-23 08:43:00,67.1,66.6,29.94,SE,135,1.0,1.0,98,0.00,,,0.00,meteohub,2014-09-23 12:43:00,
2014-09-23 08:48:00,67.6,67.1,29.94,SE,135,1.0,1.0,98,0.00,,,0.00,meteohub,2014-09-23 12:48:00,
2014-09-23 08:53:00,68.0,66.6,29.94,SE,135,1.0,1.0,95,0.00,,,0.00,meteohub,2014-09-23 12:53:00,
2014-09-23 08:58:00,68.4,66.6,29.94,SE,135,1.0,1.0,94,0.00,,,0.00,meteohub,2014-09-23 12:58:00,
2014-09-23 09:03:00,68.7,66.4,29.94,SE,135,2.0,2.0,92,0.00,,,0.00,meteohub,2014-09-23 13:03:00,
2014-09-23 09:09:00,69.6,67.3,29.94,SE,135,4.0,4.0,92,0.00,,,0.00,meteohub,2014-09-23 13:09:00,
2014-09-23 09:14:00,70.3,66.9,29.95,SE,135,1.0,4.0,89,0.00,,,0.00,meteohub,2014-09-23 13:14:00,
2014-09-23 09:19:00,70.5,66.4,29.95,SE,135,1.0,4.0,87,0.00,,,0.00,meteohub,2014-09-23 13:19:00,
2014-09-23 09:24:00,70.5,66.2,29.95,SE,135,1.0,4.0,86,0.00,,,0.00,meteohub,2014-09-23 13:24:00,
2014-09-23 09:29:00,70.7,66.4,29.95,SE,135,2.0,4.0,86,0.00,,,0.00,meteohub,2014-09-23 13:29:00,
2014-09-23 09:34:00,71.4,66.7,29.96,SE,135,1.0,4.0,85,0.00,,,0.00,meteohub,2014-09-23 13:34:00,
2014-09-23 09:39:00,72.7,66.9,29.96,SE,135,1.0,4.0,82,0.00,,,0.00,meteohub,2014-09-23 13:39:00,
2014-09-23 09:44:00,73.4,67.3,29.96,SE,135,1.0,3.0,81,0.00,,,0.00,meteohub,2014-09-23 13:44:00,
2014-09-23 09:49:00,74.3,67.3,29.96,SE,135,1.0,3.0,79,0.00,,,0.00,meteohub,2014-09-23 13:49:00,
2014-09-23 09:54:00,74.8,67.5,29.95,SE,135,1.0,3.0,78,0.00,,,0.00,meteohub,2014-09-23 13:54:00,
2014-09-23 09:59:00,75.4,67.6,29.96,SE,135,4.0,6.0,77,0.00,,,0.00,meteohub,2014-09-23 13:59:00,
2014-09-23 10:04:00,75.4,67.6,29.96,SE,135,4.0,6.0,77,0.00,,,0.00,meteohub,2014-09-23 14:04:00,
2014-09-23 10:09:00,76.8,68.4,29.96,SE,135,1.0,6.0,75,0.00,,,0.00,meteohub,2014-09-23 14:09:00,
2014-09-23 10:14:00,77.4,68.0,29.96,SE,135,1.0,6.0,73,0.00,,,0.00,meteohub,2014-09-23 14:14:00,
2014-09-23 10:19:00,77.4,68.0,29.96,SE,135,1.0,6.0,73,0.00,,,0.00,meteohub,2014-09-23 14:19:00,
2014-09-23 10:24:00,77.7,68.4,29.96,SE,135,6.0,6.0,73,0.00,,,0.00,meteohub,2014-09-23 14:24:00,
2014-09-23 10:29:00,78.3,68.9,29.96,SE,135,1.0,6.0,73,0.00,,,0.00,meteohub,2014-09-23 14:29:00,
2014-09-23 10:31:00,78.1,68.4,29.96,SE,135,1.0,6.0,72,0.00,,,0.00,meteohub,2014-09-23 14:31:00,
2014-09-23 10:36:00,78.3,68.9,29.96,SE,135,4.0,6.0,73,0.00,,,0.00,meteohub,2014-09-23 14:36:00,
2014-09-23 10:41:00,79.0,68.7,29.96,SE,135,1.0,6.0,71,0.00,,,0.00,meteohub,2014-09-23 14:41:00,
2014-09-23 10:46:00,79.3,69.1,29.96,SE,135,2.0,6.0,71,0.00,,,0.00,meteohub,2014-09-23 14:46:00,
2014-09-23 10:51:00,79.3,69.1,29.96,SE,135,1.0,6.0,71,0.00,,,0.00,meteohub,2014-09-23 14:51:00,
2014-09-23 10:57:00,79.5,68.9,29.96,SE,135,1.0,5.0,70,0.00,,,0.00,meteohub,2014-09-23 14:57:00,
2014-09-23 11:02:00,79.5,69.3,29.96,SE,135,1.0,8.0,71,0.00,,,0.00,meteohub,2014-09-23 15:02:00,
2014-09-23 11:07:00,79.7,69.4,29.97,SE,135,1.0,8.0,71,0.00,,,0.00,meteohub,2014-09-23 15:07:00,
2014-09-23 11:12:00,79.9,69.6,29.97,SE,135,1.0,8.0,71,0.00,,,0.00,meteohub,2014-09-23 15:12:00,
2014-09-23 11:17:00,80.2,70.0,29.97,SE,135,1.0,4.0,71,0.00,,,0.00,meteohub,2014-09-23 15:17:00,
2014-09-23 11:22:00,80.6,69.4,29.96,SE,135,2.0,4.0,69,0.00,,,0.00,meteohub,2014-09-23 15:22:00,
2014-09-23 11:27:00,80.6,70.0,29.96,SE,135,4.0,7.0,70,0.00,,,0.00,meteohub,2014-09-23 15:27:00,
2014-09-23 11:32:00,81.3,70.2,29.96,SE,135,1.0,7.0,69,0.00,,,0.00,meteohub,2014-09-23 15:32:00,
2014-09-23 11:37:00,81.7,70.5,29.96,SE,135,1.0,7.0,69,0.00,,,0.00,meteohub,2014-09-23 15:37:00,
2014-09-23 11:42:00,82.2,70.5,29.96,SE,135,1.0,7.0,68,0.00,,,0.00,meteohub,2014-09-23 15:42:00,
2014-09-23 11:47:00,82.8,70.7,29.97,SE,135,2.0,6.0,67,0.00,,,0.00,meteohub,2014-09-23 15:47:00,
2014-09-23 11:52:00,82.9,70.9,29.97,SE,135,7.0,7.0,67,0.00,,,0.00,meteohub,2014-09-23 15:52:00,
2014-09-23 11:57:00,83.1,71.1,29.97,SE,135,1.0,7.0,67,0.00,,,0.00,meteohub,2014-09-23 15:57:00,
2014-09-23 12:02:00,83.1,71.1,29.97,SE,135,4.0,7.0,67,0.00,,,0.00,meteohub,2014-09-23 16:02:00,
2014-09-23 12:07:00,83.1,71.1,29.97,SE,135,4.0,7.0,67,0.00,,,0.00,meteohub,2014-09-23 16:07:00,
2014-09-23 12:12:00,84.4,70.9,29.96,SE,135,1.0,6.0,64,0.00,,,0.00,meteohub,2014-09-23 16:12:00,
2014-09-23 12:17:00,84.6,72.0,29.96,SE,135,1.0,8.0,66,0.00,,,0.00,meteohub,2014-09-23 16:17:00,
2014-09-23 12:22:00,85.3,72.1,29.97,SE,135,1.0,8.0,65,0.00,,,0.00,meteohub,2014-09-23 16:22:00,